Location: Gandikunta
(16.3784°N, 80.8378°E)
Time: 22:11:30
(UTC+00:00)

Cosmos 1602 Rocket - Pass Details

Date: 19 May 2025
Orbit: 597 x 627 km, 82.5° (Epoch: 18 June)

Event Time Altitude Azimuth Distance (km) Brightness Sun altitude
Rises 14:19:53 0° 3° (N) 2,841 7.3 -18.0°
Reaches altitude 10° 14:22:09 10° 9° (N) 1,934 6.3 -18.5°
Maximum altitude 14:26:17 49° 84° (E) 772 3.7 -19.3°
Enters shadow 14:26:45 47° 107° (ESE) 797 3.6 -19.4°
